| time (UTC) | temp F | wind direction | speed MPH | gust MPH | rain 1hr in | rain 24hr in | rain mn in | humidity % | barometer mb |
| 20260508230928 | 66 | 266 | 13.0 | 18.0 | 0.00 | 0.27 | 0.20 | 81 | 1006.2 |
| 20260508225424 | 66 | 266 | 8.0 | 16.0 | 0.00 | 0.27 | 0.20 | 84 | 1006.4 |
| 20260508223926 | 65 | 313 | 7.0 | 15.0 | 0.00 | 0.27 | 0.20 | 85 | 1006.6 |
| 20260508222420 | 65 | 268 | 5.0 | 10.0 | 0.00 | 0.28 | 0.20 | 85 | 1006.8 |
| 20260508220921 | 65 | 288 | 8.0 | 14.0 | 0.00 | 0.28 | 0.20 | 85 | 1006.9 |
| 20260508215416 | 65 | 293 | 7.0 | 14.0 | 0.00 | 0.28 | 0.20 | 86 | 1007.0 |
| 20260508213917 | 65 | 290 | 4.0 | 9.0 | 0.00 | 0.28 | 0.20 | 88 | 1007.1 |
| 20260508212414 | 64 | 294 | 4.0 | 8.0 | 0.00 | 0.28 | 0.20 | 90 | 1007.0 |
| 20260508210908 | 63 | 300 | 3.0 | 9.0 | 0.00 | 0.28 | 0.20 | 90 | 1007.1 |
| 20260508210056 | 62 | 275 | 5.0 | 9.0 | 0.00 | 0.28 | 0.20 | 91 | 1007.0 |
| 20260508203858 | 62 | 311 | 3.0 | 8.0 | 0.00 | 0.28 | 0.20 | 92 | 1007.0 |
| 20260508202400 | 62 | 336 | 3.0 | 6.0 | 0.00 | 0.28 | 0.20 | 92 | 1006.9 |
| 20260508200855 | 62 | 342 | 3.0 | 7.0 | 0.00 | 0.28 | 0.20 | 93 | 1007.0 |
| 20260508195351 | 61 | 29 | 2.0 | 6.0 | 0.00 | 0.28 | 0.20 | 94 | 1006.9 |
| 20260508193847 | 60 | 288 | 0.0 | 2.0 | 0.00 | 0.28 | 0.20 | 93 | 1006.7 |
| 20260508193748 | 60 | 282 | 2.0 | 4.0 | 0.00 | 0.28 | 0.20 | 93 | 1006.4 |
| 20260508190839 | 61 | 289 | 4.0 | 7.0 | 0.00 | 0.28 | 0.20 | 93 | 1006.4 |
| 20260508185333 | 61 | 317 | 4.0 | 8.0 | 0.00 | 0.28 | 0.20 | 94 | 1006.4 |
| 20260508183833 | 61 | 5 | 2.0 | 5.0 | 0.00 | 0.28 | 0.20 | 94 | 1006.5 |
| 20260508182329 | 61 | 24 | 2.0 | 4.0 | 0.00 | 0.28 | 0.20 | 94 | 1006.5 |
| 20260508181531 | 61 | 5 | 0.0 | 5.0 | 0.00 | 0.28 | 0.20 | 94 | 1006.5 |
| 20260508175325 | 61 | 114 | 0.0 | 6.0 | 0.00 | 0.28 | 0.20 | 94 | 1006.3 |
| 20260508174515 | 61 | 50 | 2.0 | 6.0 | 0.00 | 0.28 | 0.20 | 94 | 1006.4 |
| 20260508172318 | 61 | 19 | 2.0 | 13.0 | 0.00 | 0.28 | 0.20 | 94 | 1006.5 |
| 20260508170818 | 61 | 275 | 1.0 | 12.0 | 0.00 | 0.28 | 0.20 | 94 | 1006.3 |
| 20260508165313 | 61 | 269 | 7.0 | 11.0 | 0.00 | 0.28 | 0.20 | 95 | 1006.0 |
| 20260508163813 | 61 | 254 | 9.0 | 15.0 | 0.00 | 0.28 | 0.20 | 95 | 1006.0 |
| 20260508162309 | 60 | 239 | 6.0 | 9.0 | 0.00 | 0.28 | 0.20 | 95 | 1005.9 |
| 20260508160805 | 61 | 242 | 4.0 | 8.0 | 0.00 | 0.28 | 0.20 | 95 | 1006.0 |
| 20260508155301 | 60 | 240 | 2.0 | 10.0 | 0.00 | 0.28 | 0.20 | 95 | 1006.3 |
| 20260508153756 | 60 | 204 | 6.0 | 12.0 | 0.03 | 0.28 | 0.20 | 95 | 1006.4 |
| 20260508152257 | 60 | 253 | 4.0 | 13.0 | 0.05 | 0.28 | 0.20 | 96 | 1006.3 |
| 20260508150752 | 60 | 251 | 10.0 | 19.0 | 0.05 | 0.28 | 0.20 | 96 | 1006.7 |
| 20260508145248 | 60 | 279 | 13.0 | 21.0 | 0.13 | 0.28 | 0.20 | 96 | 1006.9 |
| 20260508143748 | 61 | 273 | 17.0 | 22.0 | 0.12 | 0.25 | 0.17 | 96 | 1007.1 |
| 20260508142244 | 61 | 284 | 9.0 | 15.0 | 0.12 | 0.24 | 0.16 | 97 | 1007.1 |
| 20260508140744 | 62 | 271 | 11.0 | 20.0 | 0.13 | 0.24 | 0.16 | 96 | 1007.3 |
| 20260508135239 | 65 | 305 | 21.0 | 29.0 | 0.06 | 0.15 | 0.08 | 97 | 1007.2 |
| 20260508134443 | 65 | 21 | 11.0 | 19.0 | 0.05 | 0.13 | 0.06 | 97 | 1006.8 |
| 20260508132231 | 65 | 21 | 11.0 | 21.0 | 0.04 | 0.13 | 0.04 | 97 | 1006.9 |
| 20260508130727 | 65 | 5 | 13.0 | 21.0 | 0.02 | 0.11 | 0.02 | 96 | 1007.2 |
| 20260508125222 | 66 | 22 | 12.0 | 23.0 | 0.02 | 0.10 | 0.02 | 96 | 1007.3 |
| 20260508123717 | 66 | 31 | 11.0 | 18.0 | 0.00 | 0.09 | 0.00 | 96 | 1007.2 |
| 20260508122218 | 66 | 76 | 9.0 | 21.0 | 0.00 | 0.09 | 0.00 | 96 | 1007.6 |
| 20260508120714 | 66 | 340 | 10.0 | 20.0 | 0.00 | 0.09 | 0.00 | 96 | 1007.9 |
| 20260508115210 | 66 | 340 | 14.0 | 22.0 | 0.00 | 0.09 | 0.09 | 95 | 1008.3 |
| 20260508113710 | 66 | 38 | 15.0 | 23.0 | 0.00 | 0.09 | 0.09 | 95 | 1008.5 |
| 20260508112206 | 66 | 342 | 12.0 | 21.0 | 0.00 | 0.09 | 0.09 | 95 | 1008.8 |
| 20260508110707 | 66 | 335 | 8.0 | 21.0 | 0.00 | 0.09 | 0.09 | 95 | 1008.8 |
| 20260508105202 | 66 | 355 | 8.0 | 19.0 | 0.00 | 0.09 | 0.09 | 95 | 1009.2 |
| 20260508104354 | 65 | 326 | 7.0 | 19.0 | 0.00 | 0.09 | 0.09 | 95 | 1009.4 |
| 20260508102159 | 65 | 335 | 12.0 | 21.0 | 0.01 | 0.09 | 0.09 | 96 | 1010.0 |
| 20260508100654 | 65 | 0 | 14.0 | 23.0 | 0.01 | 0.09 | 0.09 | 96 | 1010.1 |
| 20260508095150 | 65 | 340 | 11.0 | 21.0 | 0.01 | 0.09 | 0.09 | 96 | 1010.1 |
| 20260508093650 | 65 | 330 | 11.0 | 18.0 | 0.01 | 0.09 | 0.09 | 96 | 1009.9 |
| 20260508092146 | 65 | 49 | 17.0 | 26.0 | 0.00 | 0.09 | 0.09 | 95 | 1010.2 |
| 20260508091339 | 65 | 18 | 11.0 | 21.0 | 0.00 | 0.09 | 0.09 | 95 | 1010.4 |
| 20260508085143 | 65 | 342 | 10.0 | 17.0 | 0.00 | 0.09 | 0.09 | 95 | 1010.9 |
| 20260508083638 | 65 | 17 | 11.0 | 18.0 | 0.00 | 0.09 | 0.09 | 95 | 1011.0 |
| 20260508082134 | 65 | 336 | 11.0 | 18.0 | 0.00 | 0.09 | 0.09 | 95 | 1011.2 |
| 20260508080628 | 65 | 11 | 11.0 | 19.0 | 0.00 | 0.09 | 0.09 | 95 | 1011.1 |
| 20260508075129 | 65 | 331 | 11.0 | 22.0 | 0.00 | 0.09 | 0.09 | 95 | 1010.9 |
| 20260508074326 | 65 | 9 | 15.0 | 24.0 | 0.00 | 0.09 | 0.09 | 95 | 1010.8 |
| 20260508072125 | 65 | 51 | 13.0 | 23.0 | 0.00 | 0.09 | 0.09 | 95 | 1011.4 |
| 20260508071310 | 65 | 333 | 11.0 | 26.0 | 0.01 | 0.09 | 0.09 | 95 | 1011.6 |
| 20260508065117 | 64 | 341 | 11.0 | 22.0 | 0.01 | 0.09 | 0.09 | 95 | 1011.8 |
| 20260508063612 | 64 | 352 | 11.0 | 24.0 | 0.01 | 0.09 | 0.09 | 95 | 1011.7 |
| 20260508062109 | 64 | 0 | 15.0 | 21.0 | 0.01 | 0.09 | 0.09 | 95 | 1012.3 |
| 20260508060609 | 65 | 32 | 11.0 | 24.0 | 0.00 | 0.08 | 0.08 | 94 | 1012.5 |
| 20260508055105 | 66 | 32 | 7.0 | 19.0 | 0.00 | 0.08 | 0.08 | 92 | 1012.7 |
| 20260508053600 | 66 | 32 | 9.0 | 18.0 | 0.00 | 0.08 | 0.08 | 92 | 1012.8 |
| 20260508052055 | 66 | 326 | 11.0 | 19.0 | 0.00 | 0.08 | 0.08 | 92 | 1013.0 |
| 20260508050552 | 66 | 49 | 11.0 | 20.0 | 0.00 | 0.08 | 0.08 | 92 | 1013.3 |
| 20260508045051 | 66 | 33 | 14.0 | 22.0 | 0.00 | 0.08 | 0.08 | 92 | 1013.3 |
| 20260508043547 | 66 | 34 | 11.0 | 21.0 | 0.00 | 0.08 | 0.08 | 92 | 1013.7 |
| 20260508042048 | 66 | 24 | 16.0 | 24.0 | 0.00 | 0.08 | 0.08 | 92 | 1013.5 |
| 20260508040543 | 66 | 23 | 15.0 | 23.0 | 0.00 | 0.08 | 0.08 | 92 | 1013.8 |
| 20260508035039 | 66 | 45 | 18.0 | 26.0 | 0.00 | 0.08 | 0.08 | 92 | 1013.9 |
| 20260508033535 | 66 | 10 | 15.0 | 25.0 | 0.00 | 0.08 | 0.08 | 93 | 1014.0 |
| 20260508033424 | 65 | 19 | 18.0 | 22.0 | 0.00 | 0.08 | 0.08 | 93 | 1014.1 |
| 20260508030530 | 65 | 352 | 17.0 | 23.0 | 0.00 | 0.08 | 0.08 | 93 | 1014.2 |
| 20260508025034 | 65 | 18 | 19.0 | 24.0 | 0.00 | 0.08 | 0.08 | 94 | 1014.6 |
| 20260508023533 | 65 | 11 | 17.0 | 21.0 | 0.00 | 0.08 | 0.08 | 95 | 1014.8 |
| 20260508022028 | 64 | 11 | 10.0 | 13.0 | 0.00 | 0.08 | 0.08 | 96 | 1015.0 |
| 20260508020525 | 64 | 0 | 5.0 | 12.0 | 0.03 | 0.08 | 0.08 | 96 | 1015.2 |
| 20260508015022 | 64 | 15 | 8.0 | 13.0 | 0.04 | 0.08 | 0.08 | 96 | 1015.4 |
| 20260508013520 | 63 | 24 | 5.0 | 20.0 | 0.04 | 0.08 | 0.08 | 96 | 1015.5 |
| 20260508012013 | 64 | 338 | 12.0 | 21.0 | 0.03 | 0.07 | 0.08 | 96 | 1016.0 |
| 20260508010514 | 64 | 28 | 9.0 | 18.0 | 0.01 | 0.05 | 0.05 | 95 | 1016.1 |
| 20260508005011 | 64 | 9 | 7.0 | 19.0 | 0.00 | 0.04 | 0.04 | 94 | 1016.1 |
| 20260508003512 | 64 | 29 | 5.0 | 11.0 | 0.00 | 0.04 | 0.04 | 95 | 1016.3 |
| 20260508002713 | 64 | 59 | 8.0 | 17.0 | 0.01 | 0.04 | 0.04 | 95 | 1016.9 |
| 20260508000501 | 64 | 43 | 11.0 | 15.0 | 0.01 | 0.04 | 0.04 | 95 | 1017.2 |
| 20260507234957 | 64 | 49 | 6.0 | 14.0 | 0.01 | 0.04 | 0.04 | 95 | 1017.2 |
| 20260507233452 | 64 | 355 | 6.0 | 15.0 | 0.01 | 0.04 | 0.04 | 95 | 1017.7 |
| 20260507231954 | 64 | 325 | 9.0 | 21.0 | 0.02 | 0.03 | 0.03 | 94 | 1017.8 |